Flag for Switzerland Weather past 2 weeks in Olten, Solothurn, Switzerland

Now
57 °F

Cool.


Feels Like: 57 °F
Forecast: 45 / 68 °F
Wind: No wind

Location: Wynau

Current Time: Sep 3, 2015 at 5:33:31 AM

Latest Report: Sep 3, 2015 at 4:00 AM


Visibility: N/A

Pressure: 29.97 "Hg

Humidity: 89%

Dew point: 54 °F

Location of OltenLocation

Historic Weather in Olten — Graph

°F

Olten temperature yesterday

Maximum temperature yesterday: 72 °F (at 4:00 PM)
Minimum temperature yesterday: 59 °F (at 7:00 AM)
Average temperature yesterday: 64 °F

Past Weeks' High & Low Weather Summary

 TemperatureHumidityPressure
High92 °F (Aug 30, 4:00 PM)100% (Aug 20, 4:00 AM)30.26 "Hg (Aug 20, 4:00 AM)
Low47 °F (Aug 26, 7:00 AM)23% (Aug 30, 5:00 PM)29.71 "Hg (Aug 24, 7:00 AM)
Average66 °F74%30.02 "Hg
* Reported Aug 19 4:00 AM — Sep 3 4:00 AM, Olten, Weather by CustomWeather, © 2015

Note: Actual official high and low records may vary slightly from our data, if they occured in-between our weather recording intervals... More about our weather records

Advertising

Olten weather history for previous 24 hours

 ConditionsComfort  
Time TempWeatherWind HumidityBarometerVisibility
4:00 AM
Thu, Sep 3
57 °FCool.No wind89%29.97 "HgN/A
3:00 AM57 °FCool.1 mph93%29.96 "HgN/A
2:00 AM58 °FCool.1 mph83%29.96 "HgN/A
1:00 AM59 °FCool.1 mph85%29.97 "HgN/A
12:00 AM61 °FCool.1 mph80%29.96 "HgN/A
10:00 PM
Wed, Sep 2
61 °FCool.3 mph75%29.98 "HgN/A
9:00 PM62 °FCool.1 mph74%29.96 "HgN/A
8:00 PM64 °FMild.3 mph70%29.95 "HgN/A
7:00 PM69 °FMild.2 mph51%29.93 "HgN/A
6:00 PM70 °FMild.5 mph47%29.93 "HgN/A
5:00 PM70 °FMild.3 mph50%29.93 "HgN/A
4:00 PM72 °FMild.6 mph53%29.93 "HgN/A
3:00 PM71 °FMild.5 mph49%29.94 "HgN/A
2:00 PM69 °FMild.8 mph50%29.96 "HgN/A
1:00 PM67 °FMild.7 mph54%29.97 "HgN/A
12:00 PM68 °FMild.8 mph60%29.98 "HgN/A
11:00 AM64 °FMild.7 mph71%30.00 "HgN/A
10:40 AM63 °FMild.8 mph74%30.00 "HgN/A
10:00 AM62 °FCool.7 mph78%30.01 "HgN/A
9:00 AM60 °FCool.5 mph83%30.02 "HgN/A
8:00 AM59 °FCool.6 mph91%30.03 "HgN/A
7:00 AM59 °FCool.2 mph96%30.03 "HgN/A
Weather by CustomWeather, © 2015

See weather overviewHow to use our weather pages